Regional Weather Roundup
Issued by NWS

Home | Current Version | Previous Version | Text Only | Print | Product List | Glossary Off
Versions: 1 2 3 4 5 6 7 8 9 10 11 12 13 14 15 16 17 18 19 20 21 22 23 24 25 26 27 28 29 30 31 32 33 34 35 36 37 38 39 40 41 42 43 44 45 46 47 48 49 50

000
ASUS45 KPSR 202110
RWRAZ

ARIZONA REGIONAL HOURLY WEATHER ROUNDUP
NATIONAL WEATHER SERVICE PHOENIX AZ
200 PM MST SUN APR 20 2014

NOTE: FAIR INDICATES FEW OR NO CLOUDS BELOW 12,000 FEET WITH NO
SIGNIFICANT WEATHER AND/OR OBSTRUCTIONS TO VISIBILITY.

AZZ001>003-036-202200-
NORTHWEST ARIZONA

CITY           SKY/WX    TMP DP  RH WIND       PRES   REMARKS
BULLHEAD CITY  SUNNY     91  36  14 SW6       29.94F
KINGMAN        SUNNY     82  32  16 VRB7      30.08F
$$

AZZ004>008-015-016-018-202200-
NORTH CENTRAL ARIZONA

CITY           SKY/WX    TMP DP  RH WIND       PRES   REMARKS
GRAND CANYON   MOSUNNY   67  31  26 VRB3      30.21F
WILLIAMS       SUNNY     66  27  22 N9        30.28F
PRESCOTT       MOSUNNY   75  30  19 VRB6      30.15F
FLAGSTAFF      MOSUNNY   62  33  33 S6        30.24F
PAYSON         MOSUNNY   70  36  28 VRB5G13   30.19S
PAGE           MOSUNNY   79  30  16 VRB5      30.07F
$$

AZZ009>014-017-202200-
NORTHEAST ARIZONA

CITY           SKY/WX    TMP DP  RH WIND       PRES   REMARKS
WINSLOW        MOSUNNY   76  33  21 VRB7      30.13F
SAINT JOHNS    MOSUNNY   70  31  23 NW15G21   30.15F
WINDOW ROCK    PTSUNNY   70  28  21 W8G18     30.17F
SHOW LOW       MOSUNNY   63  32  31 N10       30.22F
$$

AZZ023-202200-
GREATER PHOENIX AREA

CITY           SKY/WX    TMP DP  RH WIND       PRES   REMARKS
PHOENIX        MOSUNNY   90  38  16 NW9       29.97F
BUCKEYE          N/A     86  39  19 SW3       29.99F
GLENDALE       MOSUNNY   90  39  17 SW7       29.99F
LUKE AFB       NOT AVBL
DEER VALLEY    SUNNY     85  37  18 S8G14     29.98F
SCOTTSDALE     SUNNY     86  39  19 VRB6      30.00F
MESA-FALCON    MOSUNNY   84  39  20 S8        29.99F
MESA-GATEWAY   SUNNY     84  39  20 CALM      30.02F
CHANDLER       MOSUNNY   86  39  19 S9        29.99F
$$

AZZ027-028-202200-
SOUTHWEST MARICOPA COUNTY AND PINAL COUNTY

CITY           SKY/WX    TMP DP  RH WIND       PRES   REMARKS
CASA GRANDE    SUNNY     86  39  19 CALM      30.01F
$$

AZZ503-504-507>509-202200-
SOUTHEAST ARIZONA

CITY           SKY/WX    TMP DP  RH WIND       PRES   REMARKS
TUCSON         SUNNY     85  35  16 NE9G25    30.06F
DAVIS-MONTHAN  SUNNY     84  37  19 S7        30.04F
RYAN FIELD       N/A     82  36  18 W82       30.05F
NOGALES        PTSUNNY   79  34  19 VRB3      30.09F
SIERRA VISTA   MOSUNNY   75  31  19 MISG      30.14F
DOUGLAS        SUNNY     76  29  17 VRB5      30.12F
SAFFORD        SUNNY     82  33  17 W10       30.04F
$$

AZZ020-021-025-026-031-202200-
SOUTHWEST ARIZONA

CITY           SKY/WX    TMP DP  RH WIND       PRES   REMARKS
YUMA           SUNNY     91  39  16 VRB3      29.96F
$$

CAZ031-033-041-043-047-048-061-202200-
SOUTHERN CALIFORNIA

CITY           SKY/WX    TMP DP  RH WIND       PRES   REMARKS
DOWNTOWN L.A.  SUNNY     74  56  53 CALM      30.02F
L.A. AIRPORT   MOSUNNY   68  56  65 W9        30.05F
SAN DIEGO      MOSUNNY   67  55  65 W7        30.07S
BURBANK        SUNNY     78  52  40 SE8       30.02F
ONTARIO        MOSUNNY   83  50  31 W10       30.01F
RIVERSIDE      SUNNY     83  50  31 W8        30.00F
PALM SPRINGS   MOSUNNY   90  41  18 E8        29.96F
EL CENTRO NAS  SUNNY     91  45  20 SE8       29.94F
IMPERIAL       SUNNY     91  46  21 VRB7      29.93F
BLYTHE         SUNNY     92  40  16 SE6       29.94F
NEEDLES        SUNNY     95  34  11 E7        29.94F
$$

NVZ020-UTZ003-202200-
SOUTHERN NEVADA-UTAH

CITY           SKY/WX    TMP DP  RH WIND       PRES   REMARKS
LAS VEGAS      MOSUNNY   88  33  14 VRB3      29.95F
SALT LAKE CITY PTSUNNY   69  26  20 W15       30.14F
$$

NMZ009-TXZ055-202200-
NEW MEXICO-WEST TEXAS

CITY           SKY/WX    TMP DP  RH WIND       PRES   REMARKS
ALBUQUERQUE    PTSUNNY   73  32  22 NW8       30.07F
EL PASO        MOSUNNY   75  39  27 VRB5      30.08F
$$


........................KEY........................
SKY/WX - SKY CONDITION/WEATHER
TMP    - TEMPERATURE IN FAHRENHEIT
DP     - DEW POINT IN FAHRENHEIT
RH     - RELATIVE HUMIDITY IN PERCENT
WIND   - DIRECTION AND SPEED IN MILES PER HOUR (MPH)
VRB    - VARIABLE WIND DIRECTION
PRES   - MEAN SEA LEVEL PRESSURE IN INCHES OF MERCURY
         F - FALLING PRESSURE   R - RISING PRESSURE
         S - STEADY PRESSURE
VSB    - VISIBILITY IN MILES
HX     - HEAT INDEX IN FAHRENHEIT
WCI    - WIND CHILL INDEX IN FAHRENHEIT
TC     - TEMPERATURE IN CELSIUS WHICH IS ALSO KNOWN AS
         TEMPERATURE IN CENTIGRADE
AFB    - AIR FORCE BASE
         LUKE AFB IS LUKE AIR FORCE BASE
         DAVIS-MONTHAN IS DAVIS-MONTHAN AIR FORCE BASE
NAS    - NAVAL AIR STATION
         EL CENTRO NAS IS EL CENTRO NAVAL AIR STATION
N/A    - NOT AVAILABLE



USA.gov is the U.S. government's official web portal to all federal, state and local government web resources and services.